EWG451 ELLX-EDDF

Flight info

Callsign EWG451
Flight time 0h 33m
Altitude 23000
Route ASMOX Y891 LULAT Y890 KULZO T847 IMCOM IMCOM1A
Aircraft A20N/M-SDE2E3FGHIRWXY/LB1

Departure

Time 2026-05-07 13:40
Airport Luxembourg-Findel International Airport (ELLX)

Arrival

Time 2026-05-07 14:13
Airport Frankfurt Main Airport (EDDF)
Time Latitude Longitude Altitude Speed Heading
2026-05-07 13:05 49.63353 6.21687 1249 ft 0 kts 330°
2026-05-07 13:28 49.63350 6.21690 1254 ft 2 kts 330°
2026-05-07 13:28 49.63338 6.21701 1247 ft 2 kts 330°
2026-05-07 13:28 49.63325 6.21713 1250 ft 2 kts 330°
2026-05-07 13:28 49.63312 6.21724 1248 ft 2 kts 335°
2026-05-07 13:29 49.63298 6.21724 1250 ft 2 kts 59°
2026-05-07 13:33 49.63298 6.21725 1251 ft 0 kts 59°
2026-05-07 13:33 49.63304 6.21740 1254 ft 3 kts 59°
2026-05-07 13:34 49.63309 6.21788 1243 ft 6 kts 99°
2026-05-07 13:34 49.63221 6.21876 1238 ft 11 kts 150°
2026-05-07 13:34 49.63151 6.21886 1254 ft 9 kts 233°
2026-05-07 13:35 49.63123 6.21792 1241 ft 11 kts 244°
2026-05-07 13:35 49.63086 6.21672 1247 ft 14 kts 244°
2026-05-07 13:35 49.63041 6.21529 1245 ft 16 kts 244°
2026-05-07 13:35 49.62989 6.21361 1250 ft 18 kts 244°
2026-05-07 13:36 49.62931 6.21174 1250 ft 20 kts 244°
2026-05-07 13:36 49.62867 6.20969 1244 ft 22 kts 244°
2026-05-07 13:36 49.62793 6.20754 1250 ft 23 kts 223°
2026-05-07 13:36 49.62675 6.20595 1244 ft 23 kts 220°
2026-05-07 13:37 49.62563 6.20404 1241 ft 25 kts 228°
2026-05-07 13:37 49.62451 6.20160 1228 ft 31 kts 240°
2026-05-07 13:37 49.62332 6.19842 1211 ft 37 kts 240°
2026-05-07 13:37 49.62217 6.19533 1195 ft 35 kts 240°
2026-05-07 13:38 49.62086 6.19182 1177 ft 40 kts 240°
2026-05-07 13:38 49.61974 6.18881 1164 ft 27 kts 239°
2026-05-07 13:38 49.61868 6.18726 1160 ft 18 kts 212°
2026-05-07 13:38 49.61774 6.18780 1167 ft 14 kts 104°
2026-05-07 13:39 49.61824 6.18950 1172 ft 37 kts 60°
2026-05-07 13:39 49.62055 6.19570 1197 ft 96 kts 60°
2026-05-07 13:39 49.62465 6.20675 1253 ft 140 kts 60°
2026-05-07 13:39 49.63010 6.22146 1378 ft 166 kts 59°
2026-05-07 13:40 49.63588 6.23714 1888 ft 173 kts 59°
2026-05-07 13:40 49.64194 6.25356 2479 ft 177 kts 60°
2026-05-07 13:40 49.64809 6.27022 3021 ft 183 kts 59°
2026-05-07 13:40 49.65473 6.28793 3399 ft 199 kts 59°
2026-05-07 13:41 49.66200 6.30728 3788 ft 217 kts 59°
2026-05-07 13:41 49.66993 6.32877 4182 ft 243 kts 60°
2026-05-07 13:41 49.67857 6.35252 4799 ft 263 kts 60°
2026-05-07 13:41 49.68890 6.37598 5731 ft 267 kts 43°
2026-05-07 13:42 49.70464 6.39101 6686 ft 270 kts 18°
2026-05-07 13:42 49.72330 6.39421 7609 ft 273 kts 351°
2026-05-07 13:42 49.74133 6.38521 8545 ft 276 kts 336°
2026-05-07 13:42 49.75885 6.37309 9469 ft 281 kts 334°
2026-05-07 13:43 49.77691 6.36014 10338 ft 287 kts 334°
2026-05-07 13:43 49.79560 6.34719 10756 ft 309 kts 335°
2026-05-07 13:43 49.81635 6.33327 11100 ft 332 kts 336°
2026-05-07 13:43 49.83887 6.32534 11768 ft 341 kts 358°
2026-05-07 13:44 49.86240 6.33116 12621 ft 348 kts 19°
2026-05-07 13:44 49.88442 6.34741 13440 ft 353 kts 28°
2026-05-07 13:44 49.90585 6.36658 14204 ft 358 kts 30°
2026-05-07 13:44 49.92743 6.38638 14955 ft 362 kts 29°
2026-05-07 13:45 49.94934 6.40606 15692 ft 366 kts 28°
2026-05-07 13:45 49.97161 6.42559 16431 ft 369 kts 28°
2026-05-07 13:45 49.99420 6.44509 17144 ft 373 kts 28°
2026-05-07 13:45 50.01708 6.46471 17855 ft 378 kts 28°
2026-05-07 13:46 50.04026 6.48455 18528 ft 382 kts 28°
2026-05-07 13:46 50.06366 6.50459 19151 ft 385 kts 28°
2026-05-07 13:46 50.08721 6.52479 19757 ft 389 kts 28°
2026-05-07 13:46 50.11099 6.54527 20362 ft 393 kts 28°
2026-05-07 13:47 50.13478 6.56578 20957 ft 397 kts 28°
2026-05-07 13:47 50.15911 6.58667 21536 ft 400 kts 28°
2026-05-07 13:47 50.18361 6.60773 22131 ft 404 kts 28°
2026-05-07 13:47 50.20833 6.62903 22689 ft 408 kts 28°
2026-05-07 13:48 50.23333 6.65062 22979 ft 412 kts 28°
2026-05-07 13:48 50.25838 6.67230 23032 ft 411 kts 28°
2026-05-07 13:48 50.28341 6.69399 23030 ft 411 kts 28°
2026-05-07 13:48 50.30682 6.71943 22914 ft 410 kts 42°
2026-05-07 13:49 50.32515 6.75332 22504 ft 409 kts 58°
2026-05-07 13:49 50.33688 6.79358 21967 ft 406 kts 74°
2026-05-07 13:49 50.34097 6.83695 21381 ft 402 kts 91°
2026-05-07 13:49 50.33766 6.88006 20782 ft 398 kts 106°
2026-05-07 13:50 50.32721 6.91922 20294 ft 392 kts 120°
2026-05-07 13:50 50.31358 6.95545 20092 ft 384 kts 122°
2026-05-07 13:50 50.29991 6.99199 20045 ft 393 kts 120°
2026-05-07 13:50 50.28692 7.02981 20048 ft 394 kts 118°
2026-05-07 13:51 50.27470 7.06815 20048 ft 393 kts 116°
2026-05-07 13:51 50.26289 7.10685 20047 ft 394 kts 116°
2026-05-07 13:51 50.25125 7.14566 20050 ft 393 kts 116°
2026-05-07 13:51 50.23968 7.18438 20045 ft 393 kts 116°
2026-05-07 13:52 50.22825 7.22257 20046 ft 393 kts 116°
2026-05-07 13:52 50.21665 7.26124 19966 ft 392 kts 116°
2026-05-07 13:52 50.20511 7.29960 19632 ft 390 kts 116°
2026-05-07 13:52 50.19398 7.33811 19156 ft 388 kts 111°
2026-05-07 13:53 50.18464 7.37745 18639 ft 386 kts 111°
2026-05-07 13:53 50.17537 7.41665 18073 ft 383 kts 111°
2026-05-07 13:53 50.16615 7.45545 17493 ft 380 kts 111°
2026-05-07 13:53 50.15694 7.49402 16926 ft 377 kts 111°
2026-05-07 13:54 50.14777 7.53237 16375 ft 375 kts 111°
2026-05-07 13:54 50.13878 7.56982 15826 ft 372 kts 111°
2026-05-07 13:54 50.12971 7.60758 15279 ft 370 kts 111°
2026-05-07 13:54 50.12069 7.64506 14748 ft 368 kts 111°
2026-05-07 13:55 50.11073 7.68162 14237 ft 365 kts 117°
2026-05-07 13:55 50.09836 7.71607 13724 ft 362 kts 115°
2026-05-07 13:55 50.09179 7.75361 13152 ft 360 kts 94°
2026-05-07 13:55 50.09376 7.79210 12642 ft 355 kts 79°
2026-05-07 13:56 50.09853 7.82951 12117 ft 353 kts 77°
2026-05-07 13:56 50.10348 7.86696 11633 ft 350 kts 77°
2026-05-07 13:56 50.10819 7.90401 11209 ft 345 kts 78°
2026-05-07 13:56 50.11257 7.94032 11067 ft 341 kts 78°
2026-05-07 13:57 50.11689 7.97727 11039 ft 349 kts 79°
2026-05-07 13:57 50.12116 8.01445 11040 ft 347 kts 79°
2026-05-07 13:57 50.12536 8.05148 11045 ft 347 kts 79°
2026-05-07 13:57 50.12955 8.08855 11037 ft 347 kts 79°
2026-05-07 13:58 50.13373 8.12561 11044 ft 347 kts 79°
2026-05-07 13:58 50.13790 8.16258 11045 ft 347 kts 79°
2026-05-07 13:58 50.14206 8.19967 11048 ft 347 kts 79°
2026-05-07 13:58 50.14616 8.23623 11043 ft 346 kts 79°
2026-05-07 13:59 50.15029 8.27324 11042 ft 346 kts 79°
2026-05-07 13:59 50.15441 8.31019 11041 ft 346 kts 79°
2026-05-07 13:59 50.15851 8.34719 11040 ft 346 kts 79°
2026-05-07 13:59 50.16261 8.38424 11041 ft 346 kts 79°
2026-05-07 14:00 50.16667 8.42110 11044 ft 345 kts 79°
2026-05-07 14:00 50.17073 8.45805 11046 ft 346 kts 79°
2026-05-07 14:00 50.17479 8.49503 11046 ft 345 kts 79°
2026-05-07 14:00 50.17882 8.53188 11045 ft 345 kts 79°
2026-05-07 14:01 50.18284 8.56883 11046 ft 345 kts 79°
2026-05-07 14:01 50.18684 8.60567 10974 ft 343 kts 79°
2026-05-07 14:01 50.19081 8.64231 10666 ft 341 kts 79°
2026-05-07 14:01 50.19473 8.67869 10357 ft 335 kts 79°
2026-05-07 14:02 50.19851 8.71390 10215 ft 322 kts 79°
2026-05-07 14:02 50.20212 8.74763 10101 ft 309 kts 79°
2026-05-07 14:02 50.20558 8.78007 9984 ft 297 kts 79°
2026-05-07 14:02 50.20894 8.81154 9689 ft 292 kts 79°
2026-05-07 14:03 50.21221 8.84226 9235 ft 289 kts 79°
2026-05-07 14:03 50.21573 8.87307 8661 ft 287 kts 75°
2026-05-07 14:03 50.22193 8.90245 8113 ft 283 kts 68°
2026-05-07 14:03 50.22876 8.93110 7547 ft 281 kts 68°
2026-05-07 14:04 50.23335 8.96059 6978 ft 281 kts 88°
2026-05-07 14:04 50.22954 8.99020 6392 ft 281 kts 115°
2026-05-07 14:04 50.21768 9.01392 5803 ft 278 kts 143°
2026-05-07 14:04 50.20055 9.02712 5238 ft 274 kts 163°
2026-05-07 14:05 50.18241 9.03603 4702 ft 272 kts 163°
2026-05-07 14:05 50.16436 9.04474 4198 ft 269 kts 163°
2026-05-07 14:05 50.14655 9.05320 4029 ft 271 kts 167°
2026-05-07 14:05 50.12812 9.05343 3994 ft 261 kts 200°
2026-05-07 14:06 50.11400 9.03842 3990 ft 238 kts 237°
2026-05-07 14:06 50.10919 9.01531 3998 ft 223 kts 269°
2026-05-07 14:06 50.10891 8.99187 3991 ft 209 kts 271°
2026-05-07 14:06 50.10881 8.97038 3987 ft 193 kts 271°
2026-05-07 14:07 50.10856 8.95022 3999 ft 184 kts 271°
2026-05-07 14:07 50.10818 8.93017 3988 ft 184 kts 270°
2026-05-07 14:07 50.10763 8.91034 3988 ft 180 kts 269°
2026-05-07 14:07 50.10695 8.89139 3998 ft 174 kts 268°
2026-05-07 14:08 50.10592 8.87252 3993 ft 175 kts 264°
2026-05-07 14:08 50.10337 8.85398 3964 ft 176 kts 256°
2026-05-07 14:08 50.09961 8.83575 3790 ft 177 kts 252°
2026-05-07 14:08 50.09535 8.81796 3558 ft 175 kts 251°
2026-05-07 14:09 50.09110 8.80010 3322 ft 176 kts 252°
2026-05-07 14:09 50.08686 8.78237 3080 ft 173 kts 252°
2026-05-07 14:09 50.08263 8.76460 2848 ft 175 kts 252°
2026-05-07 14:09 50.07838 8.74682 2596 ft 176 kts 252°
2026-05-07 14:10 50.07491 8.72874 2383 ft 173 kts 264°
2026-05-07 14:10 50.07327 8.71061 2152 ft 166 kts 262°
2026-05-07 14:10 50.07048 8.69324 1821 ft 164 kts 251°
2026-05-07 14:10 50.06638 8.67772 1670 ft 145 kts 250°
2026-05-07 14:11 50.06323 8.66346 1460 ft 134 kts 253°
2026-05-07 14:11 50.06004 8.65009 1247 ft 131 kts 251°
2026-05-07 14:11 50.05694 8.63667 1098 ft 133 kts 251°
2026-05-07 14:11 50.05365 8.62320 935 ft 134 kts 249°
2026-05-07 14:12 50.05057 8.60991 752 ft 126 kts 249°
2026-05-07 14:12 50.04756 8.59713 573 ft 127 kts 249°
2026-05-07 14:12 50.04452 8.58438 384 ft 123 kts 249°
2026-05-07 14:12 50.04192 8.57351 366 ft 84 kts 249°
2026-05-07 14:13 50.04070 8.56841 363 ft 26 kts 250°
2026-05-07 14:13 50.04075 8.56737 363 ft 3 kts 351°
2026-05-07 14:13 50.04101 8.56747 366 ft 5 kts 15°
2026-05-07 14:13 50.04161 8.56769 357 ft 11 kts 11°
2026-05-07 14:14 50.04178 8.56774 361 ft 0 kts 12°
2026-05-07 14:14 50.04192 8.56778 361 ft 4 kts 11°
2026-05-07 14:15 50.04227 8.56792 363 ft 6 kts 19°
2026-05-07 14:15 50.04260 8.56842 361 ft 8 kts 60°
2026-05-07 14:15 50.04285 8.56941 363 ft 12 kts 69°
2026-05-07 14:15 50.04317 8.57075 362 ft 14 kts 69°
2026-05-07 14:16 50.04341 8.57175 361 ft 16 kts 70°
2026-05-07 14:16 50.04382 8.57349 361 ft 19 kts 70°
2026-05-07 14:16 50.04425 8.57529 361 ft 18 kts 69°
2026-05-07 14:16 50.04463 8.57688 366 ft 15 kts 70°
2026-05-07 14:17 50.04507 8.57871 367 ft 13 kts 70°
2026-05-07 14:17 50.04550 8.58015 365 ft 15 kts 38°
2026-05-07 14:17 50.04596 8.58022 360 ft 6 kts 342°
2026-05-07 14:17 50.04675 8.57979 363 ft 17 kts 340°
2026-05-07 14:18 50.04805 8.57903 359 ft 22 kts 337°
2026-05-07 14:18 50.04869 8.57760 364 ft 14 kts 294°
2026-05-07 14:18 50.04906 8.57624 359 ft 13 kts 294°
2026-05-07 14:18 50.04916 8.57592 357 ft 0 kts 295°
2026-05-07 14:22 50.04930 8.57574 357 ft 6 kts 332°
2026-05-07 14:22 50.04973 8.57587 359 ft 6 kts 21°
2026-05-07 14:22 50.04994 8.57600 360 ft 0 kts 21°
2026-05-07 14:23 50.04996 8.57601 360 ft 0 kts 21°